Location: Conflandey
(47.7287°N, 6.0456°E)
Time: 01:27:31
(UTC+00:00)

NOSS 2-3 (E) - Pass Details

Date: 24 October 2021
Orbit: 540 x 1670 km, 63.4° (Epoch: 28 November)

Event Time Altitude Azimuth Distance (km) Brightness Sun altitude
Rises 17:21:45 0° 200° (SSW) 2,685 7.2 -9.2°
Reaches altitude 10° 17:23:54 10° 194° (SSW) 1,817 6.2 -9.5°
Maximum altitude 17:27:40 44° 121° (ESE) 822 3.9 -10.1°
Drops below altitude 10° 17:32:02 10° 50° (NE) 2,103 5.8 -10.9°
Enters shadow 17:32:11 - 49° (NE) 2,162 5.9 -10.9°
